ORBCOMM FM 19

Satellite information

Favourite Embed

Satellite Type and Status

PAYLOADIN ORBIT

Key statistics

Satellite ORBCOMM FM 19 at a glance.

Uptime

9896

Days in orbit

Revolutions

≈ 14.4

Per day

Orbit

LEO

Low Earth Orbit

Inclination

45.0

Latest

Satellite identification and parameters

Extended collection of information and parameters for ORBCOMM FM 19.

Object identification

Identified? True

Debris? False

Object name: ORBCOMM FM 19

International designator: 1998-046C

Object number (NORAD): 25415

Object ID (CCSDS): 25415

Country: ORBITAL TELECOMMUNICATIONS SATELLITE (GLOBALSTAR) (ORB)

Current information (Y/N): Y

RCS size: MEDIUM

Orbital parameters

Period: 100.101 minutes

Inclination: 44.9925 deg

SMA: 7141.437 km

Apoapsis: 766.848 km

Periapsis: 759.755 km

RAAN: 166.5568 deg

Eccentricy: 0.00049663

Argument of periapsis: 319.6324 deg

Mean anomaly: 205.688 deg

Mean motion: 14.38548066 rev/day

Mean motion (dot): 0.00003125 rev/day2

B* drag term: 0.0010580833 1/REarth

Two-line elements (TLE)

Creation date: Sept. 3, 2025, 10:15 a.m.

Reference frame: TEME

Reference center: EARTH

Epoch: Sept. 3, 2025, 6:05 a.m. UTC

TLE line 0: 0 ORBCOMM FM 19

TLE line 1: 1 25415U 98046C 25246.25397590 .00003125 00000-0 10581-2 0 9991

TLE line 2: 2 25415 44.9925 166.5568 0004966 319.6324 205.6880 14.38548066415444

Live tracking on map

Real-time ground track for satellite ORBCOMM FM 19.

In-orbit conjunctions

There are no conjunctions computed for ORBCOMM FM 19, at the moment. Check back to stay up to date, as we update our databases every day.

Go to all conjunctions

Associated space launch

ORBCOMM FM 19 was lifted into orbit during the mission ‘Pegasus XL HAPS | Orbcomm-B1 - B8’, on board a Pegasus XL HAPS space rocket.

The launch took place on Aug. 2, 1998, 4:24 p.m. from Wallops Flight Facility.

For more information about the launch, click the button.

Launch to space Pegasus XL HAPS | Orbcomm-B1 - B8
Pegasus XL HAPS | Orbcomm-B1 - B8

Agency: N/A

Status: Launch Successful

Launch date: Aug. 2, 1998, 4:24 p.m. UTC

Rocket: Pegasus XL HAPS

Launch pad: Wallops Flight Facility

Location: Air launch to orbit

...

Latest news about this satellite

There are no fresh news available about this satellite. Check back as we update our databases every day.


Newsletter sign-up

Weekly statistics, charts and insights to help you stay on top of the space industry.